Weather History for Pine Belt, MS

Change the Weather History Date:

Friday, July 19, 2013

  Actual Average Record
Temperature  
Mean Temperature 79 °F -  
Max Temperature 89 °F 89 °F 102 °F (2000)
Min Temperature 69 °F 69 °F 68 °F (2008)
Cooling Degree Days 14    
Growing Degree Days 29 (Base 50)    
Moisture  
Dew Point 69 °F    
Average Humidity 75    
Maximum Humidity 94    
Minimum Humidity 52    
Precipitation  
Precipitation 0.00 in - - ()
Sea Level Pressure  
Sea Level Pressure 30.05 in    
Wind  
Wind Speed 3 mph (ESE)    
Max Wind Speed 14 mph    
Max Gust Speed 20 mph    
Visibility 8 miles    
Events      
Averages and records for this station are not official NWS values.
T = Trace of Precipitation, MM = Missing Value Source: NWS Daily Summary

Daily Weather History Graph

Daily Weather History Graph

Search for Another Location

Airport:

Trip Planner

Search our weather history database for the weather conditions in past years. The results will help you decide how hot, cold, wet, or windy it might be!

Date:

Astronomy

Jul. 19, 2013 Rise Set
Actual Time 6:05 AM CDT 8:01 PM CDT
Civil Twilight 5:38 AM CDT 8:28 PM CDT
Nautical Twilight 5:05 AM CDT 9:01 PM CDT
Astronomical Twilight 4:30 AM CDT 9:36 PM CDT
Moon 5:04 PM CDT (7/19) 2:45 AM CDT (7/19)
Length of Visible Light 14h 50m
Length of Day
13h 55m
Waxing Gibbous, 87% of the Moon is Illuminated
Jul 19
Waxing Gibbous
Jul 22
Full
Jul 29
Last Quarter
Aug 6
New
Aug 14
First Quarter

Hourly Weather History & Observations

Time (CDT) Temp. Heat Index Dew Point Humidity Pressure Visibility Wind Dir Wind Speed Gust Speed Precip Events Conditions
12:15 AM 73.4 °F - 69.8 °F 88% 30.09 in 10.0 mi East 3.5 mph - N/A   Clear
12:35 AM 73.4 °F - 69.8 °F 88% 30.08 in 10.0 mi SE 3.5 mph - N/A   Clear
12:55 AM 73.4 °F - 69.8 °F 88% 30.08 in 10.0 mi SE 5.8 mph - N/A   Clear
1:15 AM 73.4 °F - 69.8 °F 88% 30.08 in 1.5 mi Calm Calm - N/A   Clear
1:35 AM 73.4 °F - 69.8 °F 88% 30.07 in 5.0 mi Calm Calm - N/A   Clear
1:55 AM 71.6 °F - 69.8 °F 94% 30.07 in 7.0 mi SSE 3.5 mph - N/A   Clear
2:15 AM 71.6 °F - 68.0 °F 88% 30.06 in 8.0 mi Calm Calm - N/A   Clear
2:35 AM 71.6 °F - 69.8 °F 94% 30.06 in 8.0 mi Calm Calm - N/A   Clear
2:55 AM 71.6 °F - 69.8 °F 94% 30.06 in 8.0 mi Calm Calm - N/A   Clear
3:35 AM 71.6 °F - 68.0 °F 88% 30.05 in 4.0 mi Calm Calm - N/A   Clear
3:55 AM 71.6 °F - 68.0 °F 88% 30.05 in 5.0 mi Calm Calm - N/A   Clear
4:15 AM 71.6 °F - 68.0 °F 88% 30.05 in 3.0 mi Calm Calm - N/A   Scattered Clouds
4:35 AM 71.6 °F - 68.0 °F 88% 30.05 in 0.5 mi Calm Calm - N/A   Mostly Cloudy
4:55 AM 71.6 °F - 68.0 °F 88% 30.05 in 6.0 mi Calm Calm - N/A   Clear
5:15 AM 69.8 °F - 66.2 °F 88% 30.05 in 5.0 mi Calm Calm - N/A   Clear
5:35 AM 69.8 °F - 66.2 °F 88% 30.06 in 5.0 mi Calm Calm - N/A   Clear
5:55 AM 69.8 °F - 66.2 °F 88% 30.06 in 3.0 mi Calm Calm - N/A   Clear
6:15 AM 69.8 °F - 66.2 °F 88% 30.07 in 5.0 mi Calm Calm - N/A   Clear
6:35 AM 69.8 °F - 66.2 °F 88% 30.08 in 1.5 mi Calm Calm - N/A   Clear
6:55 AM 71.6 °F - 68.0 °F 88% 30.08 in 8.0 mi Calm Calm - N/A   Clear
7:15 AM 71.6 °F - 68.0 °F 88% 30.09 in 7.0 mi East 3.5 mph - N/A   Clear
7:35 AM 73.4 °F - 69.8 °F 88% 30.10 in 10.0 mi Calm Calm - N/A   Clear
7:55 AM 75.2 °F - 69.8 °F 83% 30.10 in 10.0 mi Calm Calm - N/A   Clear
8:15 AM 77.0 °F - 71.6 °F 83% 30.11 in 10.0 mi Calm Calm - N/A   Clear
8:35 AM 78.8 °F - 71.6 °F 78% 30.11 in 10.0 mi SE 3.5 mph - N/A   Clear
8:55 AM 78.8 °F - 71.6 °F 78% 30.11 in 10.0 mi ESE 5.8 mph - N/A   Clear
9:15 AM 80.6 °F 85.4 °F 73.4 °F 79% 30.12 in 10.0 mi SSE 3.5 mph - N/A   Clear
9:35 AM 80.6 °F 84.6 °F 71.6 °F 74% 30.11 in 10.0 mi Calm Calm - N/A   Clear
9:55 AM 82.4 °F 87.2 °F 71.6 °F 70% 30.11 in 10.0 mi Calm Calm - N/A   Clear
10:15 AM 82.4 °F 86.3 °F 69.8 °F 66% 30.11 in 10.0 mi NE 4.6 mph - N/A   Clear
10:35 AM 84.2 °F 88.4 °F 69.8 °F 62% 30.11 in 10.0 mi SE 3.5 mph - N/A   Partly Cloudy
10:55 AM 84.2 °F 88.4 °F 69.8 °F 62% 30.10 in 10.0 mi NE 4.6 mph - N/A   Partly Cloudy
11:15 AM 86.0 °F 90.4 °F 69.8 °F 58% 30.10 in 10.0 mi Calm Calm - N/A   Clear
11:35 AM 84.2 °F 88.4 °F 69.8 °F 62% 30.09 in 10.0 mi Calm Calm - N/A   Partly Cloudy
11:55 AM 86.0 °F 90.4 °F 69.8 °F 58% 30.09 in 10.0 mi NE 4.6 mph - N/A   Partly Cloudy
12:15 PM 86.0 °F 90.4 °F 69.8 °F 58% 30.08 in 10.0 mi East 4.6 mph - N/A   Scattered Clouds
12:35 PM 87.8 °F 91.4 °F 68.0 °F 52% 30.08 in 10.0 mi NNE 5.8 mph - N/A   Partly Cloudy
12:55 PM 87.8 °F 91.4 °F 68.0 °F 52% 30.07 in 10.0 mi ENE 4.6 mph - N/A   Clear
1:15 PM 87.8 °F 92.6 °F 69.8 °F 55% 30.06 in 10.0 mi ENE 4.6 mph - N/A   Partly Cloudy
1:35 PM 87.8 °F 92.6 °F 69.8 °F 55% 30.05 in 10.0 mi ENE 5.8 mph - N/A   Mostly Cloudy
1:55 PM 87.8 °F 92.6 °F 69.8 °F 55% 30.05 in 10.0 mi ESE 5.8 mph - N/A   Mostly Cloudy
2:15 PM 89.6 °F 94.7 °F 69.8 °F 52% 30.04 in 10.0 mi NNE 4.6 mph - N/A   Partly Cloudy
2:35 PM 87.8 °F 91.4 °F 68.0 °F 52% 30.03 in 10.0 mi East 4.6 mph - N/A   Partly Cloudy
2:55 PM 87.8 °F 91.4 °F 68.0 °F 52% 30.04 in 10.0 mi East 5.8 mph - N/A   Clear
3:15 PM 87.8 °F 92.6 °F 69.8 °F 55% 30.03 in 10.0 mi East 4.6 mph - N/A   Partly Cloudy
3:35 PM 86.0 °F 90.4 °F 69.8 °F 58% 30.03 in 10.0 mi East 6.9 mph - N/A   Clear
3:55 PM 84.2 °F 89.6 °F 71.6 °F 66% 30.02 in 10.0 mi East 5.8 mph - N/A   Clear
4:15 PM 84.2 °F 89.6 °F 71.6 °F 66% 30.01 in 10.0 mi ESE 5.8 mph - N/A   Clear
4:35 PM 86.0 °F 91.8 °F 71.6 °F 62% 30.01 in 8.0 mi ESE 6.9 mph - N/A   Clear
4:55 PM 87.8 °F 93.8 °F 71.6 °F 58% 30.00 in 10.0 mi SE 5.8 mph - N/A   Clear
5:15 PM 87.8 °F 92.6 °F 69.8 °F 55% 30.00 in 10.0 mi SSE 6.9 mph - N/A   Clear
5:35 PM 86.0 °F 90.4 °F 69.8 °F 58% 29.99 in 10.0 mi ESE 5.8 mph - N/A   Clear
5:55 PM 84.2 °F 88.4 °F 69.8 °F 62% 29.99 in 10.0 mi South 4.6 mph - N/A   Clear
6:15 PM 84.2 °F 88.4 °F 69.8 °F 62% 30.00 in 10.0 mi SSE 13.8 mph 19.6 mph N/A   Partly Cloudy
6:35 PM 80.6 °F 83.9 °F 69.8 °F 70% 30.00 in 10.0 mi SE 10.4 mph - N/A   Scattered Clouds
6:55 PM 80.6 °F 83.9 °F 69.8 °F 70% 30.01 in 10.0 mi SSE 11.5 mph - N/A   Scattered Clouds
7:15 PM 78.8 °F - 69.8 °F 74% 30.01 in 10.0 mi SE 8.1 mph - N/A   Mostly Cloudy
7:35 PM 78.8 °F - 69.8 °F 74% 30.00 in 10.0 mi SE 8.1 mph - N/A   Scattered Clouds
7:55 PM 78.8 °F - 68.0 °F 69% 30.00 in 10.0 mi ESE 3.5 mph - N/A   Mostly Cloudy
8:35 PM 75.2 °F - 69.8 °F 83% 30.01 in 10.0 mi East 3.5 mph - N/A   Clear
8:55 PM 75.2 °F - 69.8 °F 83% 30.02 in 10.0 mi North - - N/A   Clear
9:15 PM 75.2 °F - 69.8 °F 83% 30.03 in 1.5 mi Calm Calm - N/A   Clear
9:35 PM 73.4 °F - 69.8 °F 88% 30.03 in 1.5 mi Calm Calm - N/A   Clear
9:55 PM 73.4 °F - 69.8 °F 88% 30.04 in 8.0 mi Calm Calm - N/A   Clear
10:15 PM 73.4 °F - 69.8 °F 88% 30.04 in 10.0 mi Calm Calm - N/A   Clear
10:35 PM 73.4 °F - 69.8 °F 88% 30.04 in 10.0 mi Calm Calm - N/A   Partly Cloudy
10:55 PM 71.6 °F - 68.0 °F 88% 30.04 in 10.0 mi Calm Calm - N/A   Clear
11:15 PM 71.6 °F - 68.0 °F 88% 30.04 in 10.0 mi Calm Calm - N/A   Clear
11:35 PM 71.6 °F - 68.0 °F 88% 30.03 in 10.0 mi Calm Calm - N/A   Clear
11:55 PM 71.6 °F - 69.8 °F 94% 30.03 in 7.0 mi East 4.6 mph - N/A   Clear